Powrót do katalogu

NAXING 3B

AktywnyNaukaSSO
NORAD 60015·PAYLOAD·🇨🇳 China
Ta nazwa satelity nie została jeszcze potwierdzona przez oficjalne źródła.

Wystrzelony Jun 6, 2024 z Jiuquan Satellite Launch Center

Loading…

Następne Przeloty (najbliższe 24 godziny)

TLE

ŚwieżeSource: Space-Track

Epoka: Sep 14, 2026, 14:29 UTC

1 60015U 24110D   26257.60403125  .00005666  00000-0  22867-3 0  9994
2 60015  97.5756 355.8374 0008303 301.3925  58.6499 15.25175710125884

Śledź NAXING 3B w czasie rzeczywistym z AllMySat

Download on the App Store